Terminal Aerodrome Forecast
Issued by NWS

Home | Current Version | Previous Version | Text Only | Print | Product List | Glossary On
Versions: 1 2 3 4 5 6 7 8 9 10 11 12 13 14 15 16
007
FTUS43 KGRR 081438 AAA
TAFJXN
TAF AMD
KJXN 081438Z 0815/0912 27015G23KT 4SM -SHSN BLSN BR OVC025
      TEMPO 0815/0818 2SM -SN OVC015
     FM090300 28010KT 6SM -SHSN BR OVC020=

USA.gov is the U.S. government's official web portal to all federal, state and local government web resources and services.